Time,TemperatureF,DewpointF,PressureIn,WindDirection,WindDirectionDegrees,WindSpeedMPH,WindSpeedGustMPH,Humidity,HourlyPrecipIn,Conditions,Clouds,dailyrainin,SoftwareType,DateUTC
2013-02-26 00:01:00,74.0,-99.9,29.86,SSE,151,6.0,11.0,-999,-99.99,,,-99.99,,2013-02-26 05:01:00,
2013-02-26 00:12:00,74.0,-99.9,29.85,SSE,147,6.0,11.0,-999,-99.99,,,-99.99,,2013-02-26 05:12:00,
2013-02-26 00:22:00,74.0,-99.9,29.85,SSE,154,9.0,13.0,-999,-99.99,,,-99.99,,2013-02-26 05:22:00,
2013-02-26 00:32:00,74.0,-99.9,29.85,SSE,163,10.0,12.0,-999,-99.99,,,-99.99,,2013-02-26 05:32:00,
2013-02-26 00:43:00,75.0,-99.9,29.85,SSE,161,9.0,13.0,-999,-99.99,,,-99.99,,2013-02-26 05:43:00,
2013-02-26 00:52:00,75.0,-99.9,29.84,SSE,164,10.0,13.0,-999,-99.99,,,-99.99,,2013-02-26 05:52:00,
2013-02-26 01:02:00,75.0,-99.9,29.84,SSE,154,9.0,13.0,-999,-99.99,,,-99.99,,2013-02-26 06:02:00,
2013-02-26 01:11:00,75.0,-99.9,29.84,SSE,160,9.0,12.0,-999,-99.99,,,-99.99,,2013-02-26 06:11:00,
2013-02-26 01:22:00,75.0,-99.9,29.83,SSE,156,11.0,14.0,-999,-99.99,,,-99.99,,2013-02-26 06:22:00,
2013-02-26 01:32:00,75.0,-99.9,29.83,SSE,164,11.0,13.0,-999,-99.99,,,-99.99,,2013-02-26 06:32:00,
2013-02-26 01:42:00,75.0,-99.9,29.82,SSE,157,11.0,17.0,-999,-99.99,,,-99.99,,2013-02-26 06:42:00,
2013-02-26 01:52:00,75.0,-99.9,29.82,SSE,163,11.0,14.0,-999,-99.99,,,-99.99,,2013-02-26 06:52:00,
2013-02-26 02:01:00,75.0,-99.9,29.81,SSE,158,11.0,15.0,-999,-99.99,,,-99.99,,2013-02-26 07:01:00,
2013-02-26 02:11:00,75.0,-99.9,29.81,SSE,164,12.0,16.0,-999,-99.99,,,-99.99,,2013-02-26 07:11:00,
2013-02-26 02:22:00,75.0,-99.9,29.81,SSE,161,13.0,16.0,-999,-99.99,,,-99.99,,2013-02-26 07:22:00,
2013-02-26 02:32:00,75.0,-99.9,29.81,SSE,165,13.0,18.0,-999,-99.99,,,-99.99,,2013-02-26 07:32:00,
2013-02-26 02:42:00,75.0,-99.9,29.80,SSE,166,13.0,17.0,-999,-99.99,,,-99.99,,2013-02-26 07:42:00,
2013-02-26 02:52:00,75.0,-99.9,29.81,SSE,163,11.0,20.0,-999,-99.99,,,-99.99,,2013-02-26 07:52:00,
2013-02-26 03:02:00,75.0,-99.9,29.80,SSE,166,16.0,22.0,-999,-99.99,,,-99.99,,2013-02-26 08:02:00,
2013-02-26 03:11:00,75.0,-99.9,29.80,SSE,164,14.0,19.0,-999,-99.99,,,-99.99,,2013-02-26 08:11:00,
2013-02-26 03:22:00,75.0,-99.9,29.80,SSE,166,13.0,20.0,-999,-99.99,,,-99.99,,2013-02-26 08:22:00,
2013-02-26 03:32:00,76.0,-99.9,29.81,South,170,15.0,19.0,-999,-99.99,,,-99.99,,2013-02-26 08:32:00,
2013-02-26 03:42:00,76.0,-99.9,29.80,SSE,166,15.0,21.0,-999,-99.99,,,-99.99,,2013-02-26 08:42:00,
2013-02-26 03:52:00,76.0,-99.9,29.80,SSE,163,14.0,19.0,-999,-99.99,,,-99.99,,2013-02-26 08:52:00,
2013-02-26 04:02:00,75.0,-99.9,29.80,SSE,167,14.0,19.0,-999,-99.99,,,-99.99,,2013-02-26 09:02:00,
2013-02-26 04:11:00,75.0,-99.9,29.80,South,170,18.0,23.0,-999,-99.99,,,-99.99,,2013-02-26 09:11:00,
2013-02-26 04:21:00,75.0,-99.9,29.79,SSE,163,16.0,23.0,-999,-99.99,,,-99.99,,2013-02-26 09:21:00,
2013-02-26 04:32:00,75.0,-99.9,29.80,SSE,167,16.0,19.0,-999,-99.99,,,-99.99,,2013-02-26 09:32:00,
2013-02-26 04:43:00,75.0,-99.9,29.79,SSE,166,18.0,24.0,-999,-99.99,,,-99.99,,2013-02-26 09:43:00,
2013-02-26 04:52:00,76.0,-99.9,29.79,SSE,168,18.0,24.0,-999,-99.99,,,-99.99,,2013-02-26 09:52:00,
2013-02-26 05:01:00,75.0,-99.9,29.79,SSE,168,19.0,24.0,-999,-99.99,,,-99.99,,2013-02-26 10:01:00,
2013-02-26 05:11:00,75.0,-99.9,29.78,South,170,19.0,25.0,-999,-99.99,,,-99.99,,2013-02-26 10:11:00,
2013-02-26 05:21:00,75.0,-99.9,29.78,South,171,21.0,27.0,-999,-99.99,,,-99.99,,2013-02-26 10:21:00,
2013-02-26 05:32:00,75.0,-99.9,29.79,South,170,18.0,26.0,-999,-99.99,,,-99.99,,2013-02-26 10:32:00,
2013-02-26 05:42:00,74.0,-99.9,29.79,South,172,19.0,22.0,-999,-99.99,,,-99.99,,2013-02-26 10:42:00,
2013-02-26 05:52:00,74.0,-99.9,29.80,South,171,18.0,22.0,-999,-99.99,,,-99.99,,2013-02-26 10:52:00,
2013-02-26 06:01:00,74.0,-99.9,29.80,South,172,17.0,23.0,-999,-99.99,,,-99.99,,2013-02-26 11:01:00,
2013-02-26 06:12:00,74.0,-99.9,29.79,South,172,17.0,24.0,-999,-99.99,,,-99.99,,2013-02-26 11:12:00,
2013-02-26 06:22:00,74.0,-99.9,29.80,South,173,17.0,22.0,-999,-99.99,,,-99.99,,2013-02-26 11:22:00,
2013-02-26 06:32:00,74.0,-99.9,29.81,South,174,15.0,21.0,-999,-99.99,,,-99.99,,2013-02-26 11:32:00,
2013-02-26 06:42:00,74.0,-99.9,29.82,South,172,15.0,20.0,-999,-99.99,,,-99.99,,2013-02-26 11:42:00,
2013-02-26 06:53:00,74.0,-99.9,29.82,South,173,14.0,19.0,-999,-99.99,,,-99.99,,2013-02-26 11:53:00,
2013-02-26 07:02:00,74.0,-99.9,-100.00,South,173,17.0,19.0,-999,-99.99,,,-99.99,,2013-02-26 12:02:00,
2013-02-26 07:11:00,74.0,-99.9,29.82,South,172,16.0,19.0,-999,-99.99,,,-99.99,,2013-02-26 12:11:00,
2013-02-26 07:22:00,74.0,-99.9,29.83,South,172,15.0,21.0,-999,-99.99,,,-99.99,,2013-02-26 12:22:00,
2013-02-26 07:33:00,74.0,-99.9,29.83,South,171,14.0,20.0,-999,-99.99,,,-99.99,,2013-02-26 12:33:00,
2013-02-26 07:42:00,74.0,-99.9,29.83,South,172,15.0,18.0,-999,-99.99,,,-99.99,,2013-02-26 12:42:00,
2013-02-26 07:53:00,74.0,-99.9,29.84,South,172,16.0,22.0,-999,-99.99,,,-99.99,,2013-02-26 12:53:00,
2013-02-26 08:02:00,74.0,-99.9,29.84,South,172,15.0,21.0,-999,-99.99,,,-99.99,,2013-02-26 13:02:00,
2013-02-26 08:11:00,75.0,-99.9,29.84,South,171,18.0,24.0,-999,-99.99,,,-99.99,,2013-02-26 13:11:00,
2013-02-26 08:22:00,75.0,-99.9,29.83,South,172,18.0,24.0,-999,-99.99,,,-99.99,,2013-02-26 13:22:00,
2013-02-26 08:32:00,75.0,-99.9,29.85,South,171,15.0,22.0,-999,-99.99,,,-99.99,,2013-02-26 13:32:00,
2013-02-26 08:42:00,75.0,-99.9,29.85,South,172,18.0,23.0,-999,-99.99,,,-99.99,,2013-02-26 13:42:00,
2013-02-26 08:52:00,75.0,-99.9,29.85,South,174,18.0,24.0,-999,-99.99,,,-99.99,,2013-02-26 13:52:00,
2013-02-26 09:02:00,75.0,-99.9,29.86,South,174,17.0,22.0,-999,-99.99,,,-99.99,,2013-02-26 14:02:00,
2013-02-26 09:11:00,75.0,-99.9,29.87,South,173,17.0,23.0,-999,-99.99,,,-99.99,,2013-02-26 14:11:00,
2013-02-26 09:22:00,75.0,-99.9,29.87,South,171,15.0,25.0,-999,-99.99,,,-99.99,,2013-02-26 14:22:00,
2013-02-26 09:32:00,75.0,-99.9,29.87,South,173,17.0,23.0,-999,-99.99,,,-99.99,,2013-02-26 14:32:00,
2013-02-26 09:42:00,76.0,-99.9,29.87,South,172,17.0,23.0,-999,-99.99,,,-99.99,,2013-02-26 14:42:00,
2013-02-26 09:52:00,76.0,-99.9,29.88,South,174,17.0,24.0,-999,-99.99,,,-99.99,,2013-02-26 14:52:00,
2013-02-26 10:02:00,76.0,-99.9,29.88,South,174,15.0,24.0,-999,-99.99,,,-99.99,,2013-02-26 15:02:00,
2013-02-26 10:12:00,76.0,-99.9,29.88,South,177,11.0,25.0,-999,-99.99,,,-99.99,,2013-02-26 15:12:00,
2013-02-26 10:22:00,76.0,-99.9,29.88,South,172,18.0,25.0,-999,-99.99,,,-99.99,,2013-02-26 15:22:00,
2013-02-26 10:32:00,76.0,-99.9,29.88,South,173,20.0,25.0,-999,-99.99,,,-99.99,,2013-02-26 15:32:00,
2013-02-26 10:42:00,76.0,-99.9,29.88,South,172,19.0,27.0,-999,-99.99,,,-99.99,,2013-02-26 15:42:00,
2013-02-26 10:52:00,77.0,-99.9,29.88,South,176,18.0,28.0,-999,-99.99,,,-99.99,,2013-02-26 15:52:00,
2013-02-26 11:02:00,77.0,-99.9,29.89,South,175,12.0,27.0,-999,-99.99,,,-99.99,,2013-02-26 16:02:00,
2013-02-26 11:11:00,76.0,-99.9,29.90,South,173,21.0,30.0,-999,-99.99,,,-99.99,,2013-02-26 16:11:00,
2013-02-26 11:22:00,77.0,-99.9,29.88,South,174,17.0,26.0,-999,-99.99,,,-99.99,,2013-02-26 16:22:00,
2013-02-26 11:32:00,77.0,-99.9,29.89,South,174,22.0,32.0,-999,-99.99,,,-99.99,,2013-02-26 16:32:00,
2013-02-26 11:42:00,77.0,-99.9,29.89,South,174,18.0,28.0,-999,-99.99,,,-99.99,,2013-02-26 16:42:00,
2013-02-26 11:52:00,77.0,-99.9,29.90,South,175,17.0,27.0,-999,-99.99,,,-99.99,,2013-02-26 16:52:00,
2013-02-26 12:01:00,76.0,-99.9,29.90,South,174,12.0,22.0,-999,-99.99,,,-99.99,,2013-02-26 17:01:00,
2013-02-26 12:11:00,76.0,-99.9,29.90,South,175,15.0,27.0,-999,-99.99,,,-99.99,,2013-02-26 17:11:00,
2013-02-26 12:22:00,76.0,-99.9,29.90,South,174,20.0,27.0,-999,-99.99,,,-99.99,,2013-02-26 17:22:00,
2013-02-26 12:32:00,77.0,-99.9,29.89,South,177,13.0,24.0,-999,-99.99,,,-99.99,,2013-02-26 17:32:00,
2013-02-26 12:42:00,77.0,-99.9,29.88,South,174,12.0,27.0,-999,-99.99,,,-99.99,,2013-02-26 17:42:00,
2013-02-26 12:52:00,77.0,-99.9,29.87,South,175,16.0,26.0,-999,-99.99,,,-99.99,,2013-02-26 17:52:00,
2013-02-26 13:02:00,77.0,-99.9,29.88,South,174,21.0,28.0,-999,-99.99,,,-99.99,,2013-02-26 18:02:00,
2013-02-26 13:12:00,76.0,-99.9,29.87,South,174,15.0,27.0,-999,-99.99,,,-99.99,,2013-02-26 18:12:00,
2013-02-26 13:21:00,77.0,-99.9,29.86,South,177,12.0,29.0,-999,-99.99,,,-99.99,,2013-02-26 18:21:00,
2013-02-26 13:32:00,77.0,-99.9,29.86,South,174,18.0,27.0,-999,-99.99,,,-99.99,,2013-02-26 18:32:00,
2013-02-26 13:42:00,77.0,-99.9,29.86,South,172,14.0,27.0,-999,-99.99,,,-99.99,,2013-02-26 18:42:00,
2013-02-26 13:53:00,77.0,-99.9,29.86,South,172,15.0,28.0,-999,-99.99,,,-99.99,,2013-02-26 18:53:00,
2013-02-26 14:02:00,76.0,-99.9,29.86,South,172,12.0,23.0,-999,-99.99,,,-99.99,,2013-02-26 19:02:00,
2013-02-26 14:11:00,76.0,-99.9,29.86,South,175,9.0,17.0,-999,-99.99,,,-99.99,,2013-02-26 19:11:00,
2013-02-26 14:22:00,76.0,-99.9,29.85,South,175,11.0,19.0,-999,-99.99,,,-99.99,,2013-02-26 19:22:00,
2013-02-26 14:32:00,75.0,-99.9,29.85,South,172,9.0,16.0,-999,-99.99,,,-99.99,,2013-02-26 19:32:00,
2013-02-26 14:42:00,75.0,-99.9,29.85,South,174,9.0,19.0,-999,-99.99,,,-99.99,,2013-02-26 19:42:00,
2013-02-26 14:52:00,75.0,-99.9,29.85,South,174,10.0,19.0,-999,-99.99,,,-99.99,,2013-02-26 19:52:00,
2013-02-26 15:01:00,75.0,-99.9,29.84,South,175,15.0,20.0,-999,-99.99,,,-99.99,,2013-02-26 20:01:00,
2013-02-26 15:11:00,75.0,-99.9,29.85,South,181,4.0,12.0,-999,-99.99,,,-99.99,,2013-02-26 20:11:00,
2013-02-26 15:22:00,75.0,-99.9,29.85,South,188,3.0,7.0,-999,-99.99,,,-99.99,,2013-02-26 20:22:00,
2013-02-26 15:32:00,75.0,-99.9,29.86,SSE,167,2.0,6.0,-999,-99.99,,,-99.99,,2013-02-26 20:32:00,
2013-02-26 15:42:00,74.0,-99.9,29.86,South,187,3.0,6.0,-999,-99.99,,,-99.99,,2013-02-26 20:42:00,
2013-02-26 15:52:00,74.0,-99.9,29.85,SSW,200,2.0,6.0,-999,-99.99,,,-99.99,,2013-02-26 20:52:00,
2013-02-26 16:02:00,74.0,-99.9,29.85,South,173,7.0,13.0,-999,-99.99,,,-99.99,,2013-02-26 21:02:00,
2013-02-26 16:11:00,74.0,-99.9,29.84,South,174,6.0,17.0,-999,-99.99,,,-99.99,,2013-02-26 21:11:00,
2013-02-26 16:21:00,74.0,-99.9,29.84,South,172,6.0,11.0,-999,-99.99,,,-99.99,,2013-02-26 21:21:00,
2013-02-26 16:31:00,74.0,-99.9,29.85,South,169,5.0,8.0,-999,-99.99,,,-99.99,,2013-02-26 21:31:00,
2013-02-26 16:41:00,74.0,-99.9,29.85,SSE,167,4.0,11.0,-999,-99.99,,,-99.99,,2013-02-26 21:41:00,
2013-02-26 16:51:00,74.0,-99.9,29.85,South,174,12.0,18.0,-999,-99.99,,,-99.99,,2013-02-26 21:51:00,
2013-02-26 17:01:00,74.0,-99.9,29.85,South,173,13.0,16.0,-999,-99.99,,,-99.99,,2013-02-26 22:01:00,
2013-02-26 17:11:00,74.0,-99.9,29.85,South,173,15.0,18.0,-999,-99.99,,,-99.99,,2013-02-26 22:11:00,
2013-02-26 17:21:00,74.0,-99.9,29.85,South,174,11.0,16.0,-999,-99.99,,,-99.99,,2013-02-26 22:21:00,
2013-02-26 17:32:00,74.0,-99.9,29.85,South,173,15.0,19.0,-999,-99.99,,,-99.99,,2013-02-26 22:32:00,
2013-02-26 17:42:00,74.0,-99.9,29.85,South,178,6.0,13.0,-999,-99.99,,,-99.99,,2013-02-26 22:42:00,
2013-02-26 17:52:00,74.0,-99.9,29.84,South,175,11.0,17.0,-999,-99.99,,,-99.99,,2013-02-26 22:52:00,
2013-02-26 18:01:00,74.0,-99.9,29.84,South,173,10.0,17.0,-999,-99.99,,,-99.99,,2013-02-26 23:01:00,
2013-02-26 18:11:00,74.0,-99.9,29.84,South,174,4.0,10.0,-999,-99.99,,,-99.99,,2013-02-26 23:11:00,
2013-02-26 18:21:00,74.0,-99.9,29.85,SSE,168,3.0,12.0,-999,-99.99,,,-99.99,,2013-02-26 23:21:00,
2013-02-26 18:32:00,74.0,-99.9,29.85,South,180,3.0,8.0,-999,-99.99,,,-99.99,,2013-02-26 23:32:00,
2013-02-26 18:42:00,74.0,-99.9,29.85,SSE,162,3.0,9.0,-999,-99.99,,,-99.99,,2013-02-26 23:42:00,
2013-02-26 18:52:00,74.0,-99.9,29.86,South,171,4.0,7.0,-999,-99.99,,,-99.99,,2013-02-26 23:52:00,
2013-02-26 19:02:00,74.0,-99.9,29.87,South,174,2.0,8.0,-999,-99.99,,,-99.99,,2013-02-27 00:02:00,
2013-02-26 19:11:00,74.0,-99.9,29.87,South,173,4.0,8.0,-999,-99.99,,,-99.99,,2013-02-27 00:11:00,
2013-02-26 19:22:00,74.0,-99.9,29.87,South,172,5.0,11.0,-999,-99.99,,,-99.99,,2013-02-27 00:22:00,
2013-02-26 19:32:00,74.0,-99.9,29.87,South,172,3.0,8.0,-999,-99.99,,,-99.99,,2013-02-27 00:32:00,
2013-02-26 19:42:00,74.0,-99.9,29.87,SSW,193,3.0,6.0,-999,-99.99,,,-99.99,,2013-02-27 00:42:00,
2013-02-26 19:52:00,74.0,-99.9,29.87,SSW,201,4.0,7.0,-999,-99.99,,,-99.99,,2013-02-27 00:52:00,
2013-02-26 20:01:00,74.0,-99.9,29.87,SSW,203,4.0,7.0,-999,-99.99,,,-99.99,,2013-02-27 01:01:00,
2013-02-26 20:11:00,74.0,-99.9,29.88,South,189,3.0,7.0,-999,-99.99,,,-99.99,,2013-02-27 01:11:00,
2013-02-26 20:22:00,74.0,-99.9,29.88,South,178,2.0,6.0,-999,-99.99,,,-99.99,,2013-02-27 01:22:00,
2013-02-26 20:32:00,74.0,-99.9,29.89,SSW,193,3.0,6.0,-999,-99.99,,,-99.99,,2013-02-27 01:32:00,
2013-02-26 20:42:00,74.0,-99.9,29.90,SSW,192,4.0,6.0,-999,-99.99,,,-99.99,,2013-02-27 01:42:00,
2013-02-26 20:52:00,74.0,-99.9,29.90,SSW,204,4.0,6.0,-999,-99.99,,,-99.99,,2013-02-27 01:52:00,
2013-02-26 21:02:00,74.0,-99.9,29.90,SW,214,5.0,7.0,-999,-99.99,,,-99.99,,2013-02-27 02:02:00,
2013-02-26 21:16:00,73.0,-99.9,29.91,WSW,253,13.0,15.0,-999,-99.99,,,-99.99,,2013-02-27 02:16:00,
2013-02-26 21:24:00,73.0,-99.9,29.91,WSW,257,10.0,14.0,-999,-99.99,,,-99.99,,2013-02-27 02:24:00,
2013-02-26 21:32:00,73.0,-99.9,29.91,West,259,6.0,9.0,-999,-99.99,,,-99.99,,2013-02-27 02:32:00,
2013-02-26 21:42:00,72.0,-99.9,29.91,NW,311,9.0,10.0,-999,-99.99,,,-99.99,,2013-02-27 02:42:00,
2013-02-26 21:52:00,72.0,-99.9,29.92,WNW,301,7.0,9.0,-999,-99.99,,,-99.99,,2013-02-27 02:52:00,
2013-02-26 22:02:00,72.0,-99.9,29.92,NW,307,8.0,9.0,-999,-99.99,,,-99.99,,2013-02-27 03:02:00,
2013-02-26 22:11:00,72.0,-99.9,29.92,NW,308,4.0,8.0,-999,-99.99,,,-99.99,,2013-02-27 03:11:00,
2013-02-26 22:22:00,72.0,-99.9,29.93,NW,308,4.0,6.0,-999,-99.99,,,-99.99,,2013-02-27 03:22:00,
2013-02-26 22:32:00,72.0,-99.9,29.93,NW,311,8.0,10.0,-999,-99.99,,,-99.99,,2013-02-27 03:32:00,
2013-02-26 22:42:00,71.0,-99.9,29.93,NW,304,7.0,10.0,-999,-99.99,,,-99.99,,2013-02-27 03:42:00,
2013-02-26 22:52:00,71.0,-99.9,29.93,WNW,299,7.0,9.0,-999,-99.99,,,-99.99,,2013-02-27 03:52:00,
2013-02-26 23:02:00,71.0,-99.9,29.93,NW,312,7.0,9.0,-999,-99.99,,,-99.99,,2013-02-27 04:02:00,
2013-02-26 23:12:00,71.0,-99.9,29.93,NW,316,8.0,9.0,-999,-99.99,,,-99.99,,2013-02-27 04:12:00,
2013-02-26 23:22:00,71.0,-99.9,29.93,NW,316,8.0,9.0,-999,-99.99,,,-99.99,,2013-02-27 04:22:00,
2013-02-26 23:32:00,71.0,-99.9,29.93,NW,320,8.0,9.0,-999,-99.99,,,-99.99,,2013-02-27 04:32:00,
2013-02-26 23:42:00,71.0,-99.9,29.92,NW,326,8.0,9.0,-999,-99.99,,,-99.99,,2013-02-27 04:42:00,
2013-02-26 23:52:00,71.0,-99.9,29.92,NNW,331,7.0,9.0,-999,-99.99,,,-99.99,,2013-02-27 04:52:00,